Location: ????????
(38.4362°N, 22.8767°E)
Time: 18:15:23
(UTC+00:00)

Envisat - Pass Details

Date: 23 April 2024
Orbit: 762 x 764 km, 98.3° (Epoch: 27 May)

Event Time Altitude Azimuth Distance (km) Brightness Sun altitude
Rises 02:05:23 0° 9° (N) 3,235 6.9 -17.8°
Reaches altitude 10° 02:07:43 10° 6° (N) 2,305 6.0 -17.4°
Maximum altitude 02:12:43 63° 286° (WNW) 848 3.0 -16.6°
Enters shadow 02:15:54 22° 211° (SSW) 1,606 4.2 -16.1°
